Regional Weather Roundup
Issued by NWS

Home | Current Version | Previous Version | Text Only | Print | Product List | Glossary On
Versions: 1 2 3 4 5 6 7 8 9 10 11 12 13 14 15 16 17 18 19 20 21 22 23 24 25 26 27 28 29 30 31 32 33 34 35 36 37 38 39 40 41 42 43 44 45 46 47 48 49 50
000
ASUS43 KMKX 281421
RWRWI

WISCONSIN REGIONAL WEATHER ROUNDUP
NATIONAL WEATHER SERVICE MILWAUKEE/SULLIVAN WI
900 AM CDT THU JUL 28 2016

NOTE: "FAIR" INDICATES FEW OR NO CLOUDS BELOW 12,000 FEET WITH NO
SIGNIFICANT WEATHER AND/OR OBSTRUCTIONS TO VISIBILITY.

WIZ001-002-006>008-014>016-023>028-281500-
NORTHWEST WISCONSIN

CITY           SKY/WX    TMP DP  RH WIND       PRES   REMARKS
SUPERIOR ARPT  SUNNY     66  59  76 NE5       30.08R
ASHLAND        SUNNY     68  59  73 NE8       30.07R
HAYWARD        MOSUNNY   66  57  72 NE12G18   30.06R
SIREN          NOT AVBL
CUMBERLAND     CLOUDY    64  59  82 NE13      30.03S
RICE LAKE      CLOUDY    67  60  79 NE9       30.03F
CHETEK         CLOUDY    67  64  87 NE7       30.02S
LADYSMITH      MOSUNNY   68  61  76 NE7       30.05R
EAU CLAIRE     CLOUDY    67  65  93 NE12      29.98S
MENOMONIE      CLOUDY    66  66  99 N8        29.99F
NEW RICHMOND   CLOUDY    67  63  87 NE8       30.02S
OSCEOLA        CLOUDY    66  66 100 N6        30.06R
$$

WIZ003>005-009-010-017-018-281500-
NORTH CENTRAL WISCONSIN

CITY           SKY/WX    TMP DP  RH WIND       PRES   REMARKS
MANITOWISH WTR SUNNY     64  58  79 NE8       30.06R
ARBOR VITAE    SUNNY     64  56  73 NE6       30.05S
WOODRUFF       SUNNY     64  56  73 NE6       30.05S
RHINELANDER    CLOUDY    63  56  78 NE8       30.05S
EAGLE RIVER    SUNNY     65  54  69 NE7       30.05S
LAND O LAKES   SUNNY     64  55  72 NE6       30.06F
PHILLIPS       PTSUNNY   65  57  76 E8        30.04S
TOMAHAWK       CLOUDY    61  58  87 NE8       30.05R
MEDFORD        CLOUDY    61  61 100 NE9       30.02S
MERRILL        CLOUDY    61  61 100 E3        30.04S
$$

WIZ029-030-035-036-043>047-281500-
CENTRAL WISCONSIN

CITY           SKY/WX    TMP DP  RH WIND       PRES   REMARKS
WAUSAU         LGT RAIN  60  59  96 NE8       30.01R FOG
MOSINEE        NOT AVBL
MARSHFIELD     CLOUDY    62  59  90 E13       29.99S
STEVENS POINT  LGT RAIN  59  59  99 NE9       30.01S
WAUPACA        CLOUDY    66  65  96 NE5       30.00S
WAUTOMA        CLOUDY    66  61  82 E15G22    29.98S
WISC RAPIDS    CLOUDY    64  60  87 E9G20     29.99S
CAMP DOUGLAS   LGT RAIN  68  66  94 E6        29.94S
$$

WIZ011>013-019>022-031-037>040-048>050-281500-
NORTHEAST WISCONSIN

CITY           SKY/WX    TMP DP  RH WIND       PRES   REMARKS
ANTIGO         CLOUDY    60  59  97 CALM      30.04R
SHAWANO        CLOUDY    63  60  90 NE9       30.02S
OCONTO         CLOUDY   N/A N/A N/A N3        30.01S
STURGEON BAY   CLOUDY    64  62  93 NE6       30.02S
GREEN BAY      CLOUDY    66  64  93 NE10      30.00R
MANITOWOC      LGT RAIN  65  61  87 N7        29.99S
APPLETON       CLOUDY    64  61  88 NE12G17   29.99R
CLINTONVILLE   CLOUDY    61  59  94 NE6       30.01S
OSHKOSH        LGT RAIN  66  61  84 NE9       29.97F
$$

WIZ032>034-041-042-053>061-281500-
SOUTHWEST WISCONSIN

CITY           SKY/WX    TMP DP  RH WIND       PRES   REMARKS
LA CROSSE      CLOUDY    70  66  87 N6        29.93R
SPARTA         CLOUDY    68  67  95 E8        29.93F
VIROQUA        CLOUDY    69  69 100 CALM      29.93F
BOSCOBEL       CLOUDY    72  69  90 NE7       29.91S
PRAIRIE DU CHI CLOUDY    73  68  86 N5        29.90S
PLATTEVILLE    PTSUNNY   75  70  84 E5        29.92S
$$

WIZ056-057-062-063-064-067-068-281500-
SOUTH CENTRAL WISCONSIN

CITY           SKY/WX    TMP DP  RH WIND       PRES   REMARKS
REEDSBURG      CLOUDY    70  67  90 E8        29.93S
BARABOO/DELLS  CLOUDY    69  65  87 E8        29.95R
LONE ROCK      CLOUDY    72  69  90 E9        29.93R
MINERAL POINT  SUNNY     73  70  88 NE5       29.93S
MADISON        CLOUDY    72  67  84 E12       29.93R
MIDDLETON      CLOUDY    72  68  88 E7        29.94S
WATERTOWN      CLOUDY    69  69 100 E7        29.95R
MONROE         MOSUNNY   72  70  94 E6        29.92F FOG
JANESVILLE     MOSUNNY   75  72  88 E6        29.92S
$$

WIZ051-052-058>065-066-070>072-281500-
SOUTHEAST WISCONSIN

CITY           SKY/WX    TMP DP  RH WIND       PRES   REMARKS
MILWAUKEE      FOG       71  68  90 NE6       29.94S VSB 1/2
WAUKESHA       NOT AVBL
MILWAUKEE/TIMM CLOUDY    72  66  83 NE6       29.95S
RACINE         PTSUNNY   71  67  87 N6        29.95S
BURLINGTON     PTSUNNY   73  67  82 SE7       29.94S
KENOSHA        PTSUNNY   76  70  82 E8        29.93F
FOND DU LAC    CLOUDY    68  62  81 E9        29.97S
SHEBOYGAN      CLOUDY    67  61  81 NE16      29.97S
WEST BEND      CLOUDY    68  63  83 NE10      29.96S
JUNEAU         CLOUDY    68  65  92 NE7       29.97R
$$

LSZ147-162-281500-
LAKE SUPERIOR

STATION/POSITION TIME  TEMP    WIND        PRES    WAVE
                       AIR SEA DIR/SP/G            HT/PER
                 (UTC) (F)     (DEG/KT/KT) (MB)    (FT/S)
W MID LAKE BUOY  1350   61 60   50/ 12/ 16 1017.8R   1/ 3
DEVILS ISLAND    1400   63      60/ 18/ 19 1018.5R
PORT WING        1240   63      40/  8/  8 1018.3R
SAXON HARBOR     1340   66      40/  7/ 10 1017.6R
$$

LMZ867-665-643>646-281500-
LAKE MICHIGAN

STATION/POSITION TIME  TEMP    WIND        PRES    WAVE
                       AIR SEA DIR/SP/G            HT/PER
                 (UTC) (F)     (DEG/KT/KT) (MB)    (FT/S)
CHAMBERS ISLAND  1340   66      40/  9/ 12 1016.3S
N MID LAKE BUOY  1350   65 69   60/ 12/ 16 1015.4F   1/ 4
NORTHPORT PIER   1300   65      40/  7/  8 1016.3S
SISTER BAY       1306   64        CALM       N/A
ALGOMA LAKESHORE 1313           50/ 13/ 18   N/A
KEWAUNEE LAKESHO 1400   62      30/  4/  8 1015.2R
SHEBOYGAN LAKESH 1400   59     350/ 16/ 17 1015.0R
PORT WASHINGTON  1340   69      20/  7/ 13 1014.9R
ATWATER BUOY     1400   63 62  360/ 10/ 12 1015.5R
MILWAUKEE LAKESH 1410   68     360/ 10/ 13   N/A
S MID LAKE BUOY  1350   74 74  100/  6/  6 1012.7R   1
KENOSHA   LAKESH 1400   67      20/  6/  7 1013.2F
$$

TC  - TEMPERATURE IN CELSIUS
VSB - VISIBILITY IN STATUTE MILES
WCI - WIND CHILL INDEX
HX  - HEAT INDEX





USA.gov is the U.S. government's official web portal to all federal, state and local government web resources and services.